Regional Weather Roundup
Issued by NWS

Home | Current Version | Previous Version | Text Only | Print | Product List | Glossary Off
Versions: 1 2 3 4 5 6 7 8 9 10 11 12 13 14 15 16 17 18 19 20 21 22 23 24 25 26 27 28 29 30 31 32 33 34 35 36 37 38 39 40 41 42 43 44 45 46 47 48 49 50

000
ASUS43 KLOT 240000
RWRIL

ILLINOIS REGIONAL WEATHER ROUNDUP
NATIONAL WEATHER SERVICE CHICAGO/ROMEOVILLE IL
700 PM CDT WED APR 23 2014

NOTE: "FAIR" INDICATES FEW OR NO CLOUDS BELOW 12,000 FEET WITH NO
SIGNIFICANT WEATHER AND/OR OBSTRUCTIONS TO VISIBILITY.

* THESE STATIONS ARE NOT UNDER NWS QUALITY CONTROL. THEY ALSO MAY NOT
  REPORT WEATHER SUCH AS PRECIPITATION OR FOG.

ILZ001-002-007-009-015-016-024-240100-
NORTHWEST ILLINOIS

CITY           SKY/WX    TMP DP  RH WIND       PRES   REMARKS
MOLINE         LGT RAIN  48  41  76 SE8       30.01S
6HR MIN TEMP:  48; 6HR MAX TEMP:  58; 6HR PCP:  0.09;

STERLING*      CLOUDY    54  34  47 E16       30.02F
$$

ILZ003-004-008-010-011-017-018-240100-
NORTH CENTRAL ILLINOIS

CITY           SKY/WX    TMP DP  RH WIND       PRES   REMARKS
ROCKFORD       CLOUDY    52  25  35 SE10      30.09F
6HR MIN TEMP:  52; 6HR MAX TEMP:  57;

$$

ILZ005-006-012>014-019>023-240100-
NORTHEAST ILLINOIS

CITY           SKY/WX    TMP DP  RH WIND       PRES   REMARKS
CHICAGO-OHARE  CLOUDY    44  20  38 E8        30.11F
6HR MIN TEMP:  44; 6HR MAX TEMP:  51;

CHICAGO-MIDWAY CLOUDY    45  24  43 E10       30.11F
6HR MIN TEMP:  45; 6HR MAX TEMP:  51;

AURORA         CLOUDY    50  26  39 NE10      30.09F
6HR MIN TEMP:  50; 6HR MAX TEMP:  56;

WAUKEGAN       CLOUDY    40  19  43 NE6       30.12F
6HR MIN TEMP:  40; 6HR MAX TEMP:  45;

DUPAGE AIRPORT CLOUDY    47  24  40 E8        30.10F
6HR MIN TEMP:  47; 6HR MAX TEMP:  54;

WHEELING       CLOUDY    42  20  41 E8        30.13F
6HR MIN TEMP:  42; 6HR MAX TEMP:  49;

NORTHERLY ISL    N/A     40  26  58 NE13        N/A
$$

LMZ740>746-240100-
SOUTHERN LAKE MICHIGAN

STATION/POSITION SKY/WX   TEMP    WIND        PRES    VSBY  WAVE
                          AIR SEA DIR/SP/G                  HT/PER
                          (F)     (DEG/KT/KT) (MB)    (MI)  (FT/S)
WAUKEGAN HARBOR            39      30/  7/ 10 1021.7S
HARRISON CRIB              38     360/  9/ 10   N/A
BURNHAM HARBOR             40      20/ 10/ 12   N/A
CALUMET HARBOR             40      10/  9/ 12 1021.3R
MICHIGAN CITY              38     360/  8/ 10   N/A
$$

ILZ025>027-034>036-040-047-049-050-058-095>099-240100-
WEST-CENTRAL ILLINOIS

CITY           SKY/WX    TMP DP  RH WIND       PRES   REMARKS
QUINCY         CLOUDY    59  33  37 SE16      29.96F
$$

ILZ028>032-037-038-041>044-048-051>054-059>061-240100-
CENTRAL ILLINOIS

CITY           SKY/WX    TMP DP  RH WIND       PRES   REMARKS
DECATUR        CLOUDY    60  27  28 E9        30.04F
PEORIA         CLOUDY    55  37  50 E8        30.03F
6HR MIN TEMP:  54; 6HR MAX TEMP:  63; 6HR PCP:  0.02;

SPRINGFIELD    CLOUDY    61  28  28 E8        30.01F
6HR MIN TEMP:  58; 6HR MAX TEMP:  64; 6HR PCP: TRACE;

TAYLORVILLE    NOT AVBL
$$

ILZ033-039-045-046-055>057-062-063-240100-
EAST-CENTRAL ILLINOIS

CITY           SKY/WX    TMP DP  RH WIND       PRES   REMARKS
CHAMPAIGN      CLOUDY    60  27  28 E3        30.06S
MATTOON        CLOUDY    59  27  29 E5        30.05R
$$

ILZ079-100>102-240100-
SOUTHWEST ILLINOIS

CITY           SKY/WX    TMP DP  RH WIND       PRES   REMARKS
ALTON          PTCLDY    59  34  38 E9        29.99F
CAHOKIA*       CLOUDY    62  38  40 SE8       29.98F
$$

ILZ064>066-069>071-074>076-080>082-084>086-088>090-092>094-240100-
SOUTH-CENTRAL ILLINOIS

CITY           SKY/WX    TMP DP  RH WIND       PRES   REMARKS
CARBONDALE     PTCLDY    62  39  42 E10       29.99F
6HR MIN TEMP:  62; 6HR MAX TEMP:  67;

MT. VERNON     CLOUDY    61  32  33 NE6       30.03S
$$

ILZ067-068-072-073-078-083-087-091-240100-
SOUTHEAST ILLINOIS

CITY           SKY/WX    TMP DP  RH WIND       PRES   REMARKS
ROBINSON*      MOCLDY    60  38  44 NE5       30.06S
$$

ABBREVIATIONS USED IN REMARKS
   TC - TEMPERATURE IN CELSIUS
  WCI - WIND CHILL INDEX
   HX - HEAT INDEX
  VSB - VISIBILITY
$$




USA.gov is the U.S. government's official web portal to all federal, state and local government web resources and services.